Theta_e
312 310 310 311 310 310 311 312 314 315 317 317 314 315 319 319 321 324 322 317 316 315 315 315 316 316 316 314 314 315 316 316 316 316 316 316 316 316 315 315 314 313 313 312 312 312 312 312 312 312 312 311 310 310 309 309 311 311 310 310 311 312 313 313 313 312 312 313 311 311 313 315 315 315 315 315 316 317 317 317 317 318 319 319 320 320 319
313 311 311 311 311 311 312 312 313 314 315 316 315 315 317 316 317 322 321 317 317 316 313 314 314 313 312 312 312 313 314 314 315 315 315 316 316 316 316 315 315 314 313 312 312 311 311 311 311 311 311 310 310 310 309 308 308 308 308 308 307 308 310 310 309 308 309 309 309 308 310 311 312 312 311 311 312 313 314 314 314 315 316 316 317 318 319
316 313 312 311 311 312 312 312 314 316 316 316 316 314 316 315 316 319 320 319 319 317 312 311 311 310 311 311 310 310 311 312 312 313 314 314 315 315 315 315 315 314 313 312 312 311 311 311 310 310 310 310 310 309 309 309 309 308 308 307 305 307 309 308 307 308 308 308 309 309 309 310 310 310 310 310 311 311 312 312 313 314 315 315 314 314 315
316 313 311 312 312 312 313 314 316 317 315 315 315 313 314 314 314 317 317 317 318 316 311 310 311 310 310 310 309 309 310 310 310 311 311 312 314 314 314 315 314 314 313 312 311 311 311 310 310 310 309 309 309 309 308 306 306 306 305 304 304 305 307 307 308 309 309 309 309 308 309 309 309 310 310 311 311 311 311 312 313 314 314 315 314 313 313
314 311 311 314 313 312 316 318 315 313 313 314 315 315 315 314 312 314 313 311 313 313 310 311 312 310 309 309 309 309 310 310 310 309 310 312 313 313 313 314 313 313 312 312 311 310 310 309 309 309 309 309 309 308 307 306 306 306 305 306 306 306 306 306 307 308 307 307 308 308 308 309 308 308 309 310 310 311 311 311 312 313 313 314 314 314 314
312 312 313 315 312 312 317 317 313 313 315 315 315 314 313 313 312 312 310 308 309 310 309 310 310 309 309 308 308 308 309 309 309 309 310 311 311 312 312 313 313 312 311 311 310 310 309 309 309 308 308 309 308 307 307 308 308 307 307 307 308 307 307 307 307 307 307 307 308 308 308 308 308 307 307 306 306 307 307 306 307 308 309 311 312 313 314
313 312 313 313 311 312 314 312 311 313 314 314 315 312 309 310 311 310 308 307 307 308 307 307 307 308 308 308 307 307 307 308 308 308 309 311 311 311 311 311 311 310 310 311 310 310 309 309 309 308 307 308 308 307 308 308 308 307 307 307 308 307 307 308 308 308 307 308 308 309 309 309 308 308 307 306 306 306 306 305 304 303 304 305 307 310 313
315 312 311 312 311 311 312 311 310 312 313 314 317 314 307 307 309 308 307 307 306 306 306 306 307 307 308 307 307 306 306 306 307 307 308 309 309 310 310 310 310 310 309 309 309 309 309 309 308 307 307 307 308 308 308 308 307 307 307 307 307 307 307 307 307 307 307 308 308 309 309 309 308 308 307 307 307 307 307 307 307 306 305 305 305 307 310
315 312 311 313 311 309 313 313 310 310 311 312 315 313 307 306 306 306 307 307 306 305 305 305 306 306 307 308 306 306 306 306 305 306 307 308 308 309 308 308 308 308 308 308 308 308 308 308 307 307 306 306 307 307 307 307 307 307 307 307 306 306 307 307 307 307 307 307 307 308 308 308 309 309 308 308 308 308 308 307 308 308 308 309 309 308 309
314 311 310 310 308 308 311 312 309 308 308 308 310 312 308 305 305 305 305 306 305 304 304 305 305 306 307 308 307 305 305 305 305 305 305 306 307 307 307 307 307 306 307 307 307 307 307 306 306 306 306 306 307 307 307 306 306 307 307 307 307 307 306 306 306 306 307 307 307 307 307 307 307 308 308 308 308 308 308 308 308 309 309 310 311 310 310
311 310 309 308 308 308 309 309 307 306 306 306 309 311 308 305 304 303 304 304 303 303 304 304 305 306 307 307 306 304 304 305 305 305 305 305 305 305 305 305 305 305 305 306 306 306 307 306 305 304 305 306 306 306 306 306 306 306 306 306 306 306 305 305 306 306 306 306 306 305 305 305 305 306 306 307 307 307 308 307 308 308 309 309 310 310 310
310 310 309 308 308 308 307 306 305 305 304 306 310 310 306 303 303 303 303 303 303 303 303 303 304 306 306 305 304 304 304 304 304 304 304 304 304 304 304 304 304 304 304 304 304 305 305 305 304 304 304 304 305 305 305 306 306 306 306 306 306 306 306 306 306 306 306 306 305 306 306 306 306 306 307 308 308 308 308 308 309 309 309 309 310 310 310
309 310 309 307 307 306 305 304 304 303 304 308 308 306 304 302 302 302 302 302 302 302 302 302 303 304 303 303 303 303 303 303 303 303 303 303 303 304 304 304 304 303 303 303 303 303 304 304 303 303 303 303 304 304 304 305 305 305 306 306 306 307 307 306 307 306 306 306 306 307 307 307 307 307 307 309 309 309 309 309 310 310 310 309 310 310 310
309 309 308 307 306 305 303 303 303 303 306 308 306 303 302 302 302 301 301 302 301 301 301 302 302 302 302 302 302 302 302 302 302 302 302 302 303 303 303 303 303 303 303 303 303 303 303 303 303 303 303 303 303 303 304 304 304 304 304 305 305 305 305 305 305 305 306 306 306 306 306 306 306 306 306 307 308 308 308 309 310 310 309 309 309 310 310
308 307 307 307 307 305 302 303 303 303 306 306 303 301 301 301 301 300 300 300 300 300 300 300 300 300 301 301 301 301 301 301 301 301 301 301 301 302 302 302 302 302 303 303 303 303 302 302 302 302 302 302 303 303 303 303 304 304 304 305 304 304 304 304 305 305 305 305 305 305 305 306 306 306 307 307 307 307 308 309 309 309 309 309 309 309 310
307 306 306 307 306 303 301 302 303 302 303 302 301 300 300 300 299 299 299 299 299 299 299 299 299 300 299 300 300 300 300 300 300 300 300 300 300 301 301 301 301 301 301 302 302 302 302 302 302 302 302 302 302 302 303 303 303 303 304 304 304 304 304 304 304 305 305 305 305 306 307 307 307 308 308 307 307 308 308 308 308 308 308 308 308 308 309
305 303 305 305 303 300 300 300 301 300 300 300 299 299 299 299 299 298 299 299 299 299 299 299 299 299 299 299 299 299 299 299 299 299 299 299 299 300 300 300 300 300 300 301 301 301 301 302 302 302 302 302 302 302 303 303 303 303 303 304 304 304 304 304 304 305 305 305 305 306 306 306 306 306 306 306 306 307 307 308 308 307 307 307 308 308 309
304 302 301 300 299 299 299 299 299 299 299 299 299 299 298 298 298 298 298 298 298 298 299 298 298 299 299 299 299 299 299 299 299 299 299 299 299 299 299 299 299 300 300 300 300 301 301 301 301 301 302 302 302 302 302 302 303 303 303 303 303 304 304 304 304 304 304 305 305 305 305 305 304 304 304 305 305 305 306 307 308 308 308 308 308 309 309
304 302 299 298 298 299 299 299 299 299 298 298 298 298 298 298 298 298 299 298 298 298 299 298 299 299 299 299 299 299 299 299 299 299 299 299 299 299 299 299 300 299 299 300 300 300 301 301 301 301 302 302 302 302 302 302 302 302 303 303 303 303 303 303 304 304 304 304 304 303 303 303 304 304 304 305 305 305 306 307 307 308 308 308 308 308 308
301 301 298 297 298 298 298 298 299 298 298 298 298 298 298 298 299 299 299 299 299 299 299 299 299 299 299 299 299 299 299 299 299 299 299 299 299 299 299 299 299 299 299 300 300 300 300 300 301 301 301 301 301 301 301 301 301 302 302 303 303 303 303 303 303 303 304 304 303 303 303 303 303 304 304 304 305 305 305 306 306 307 307 307 307 307 307
301 300 298 298 299 299 298 298 298 298 298 298 298 298 299 299 299 299 299 299 299 299 299 299 299 299 299 299 299 299 299 299 299 299 299 299 299 299 300 299 299 299 299 300 300 300 300 300 300 300 300 300 301 301 301 301 301 302 302 302 302 302 303 303 303 304 304 304 303 303 303 302 302 302 303 303 303 304 304 305 305 305 306 306 306 306 306
301 299 298 298 299 299 299 298 299 298 298 299 299 299 299 299 299 299 299 298 298 298 298 298 298 298 298 298 298 299 299 299 299 299 299 299 299 299 299 299 299 300 300 300 300 299 300 300 300 300 301 301 301 301 301 301 302 302 302 302 303 303 303 304 304 304 304 303 302 302 302 302 302 302 302 303 303 304 304 304 305 305 305 305 305 305 305
299 298 298 298 298 299 298 298 299 298 298 299 298 298 298 298 298 298 298 298 298 298 298 298 297 298 298 298 298 298 298 298 299 299 299 299 299 299 299 299 299 299 299 300 300 299 299 300 300 300 301 301 301 301 301 302 302 302 302 303 303 303 303 303 303 302 302 301 301 301 301 301 302 302 303 303 304 304 304 304 305 305 304 304 304 304 304
298 298 298 298 298 298 298 298 298 298 298 298 298 297 298 298 298 298 298 297 297 297 297 298 297 298 297 297 298 298 298 298 298 298 298 299 299 299 299 299 299 299 299 300 300 300 300 300 300 300 300 301 301 301 301 302 302 302 302 302 302 302 302 301 301 301 300 300 300 300 300 300 301 302 302 303 303 304 304 304 304 304 303 303 303 302 301
298 298 298 298 298 298 298 298 298 298 298 298 297 297 297 297 298 297 297 297 297 297 297 297 297 297 297 297 297 296 296 297 297 297 298 298 298 298 299 300 299 299 299 300 300 300 300 300 300 300 301 301 301 301 301 301 301 302 302 302 301 301 300 300 299 299 299 299 300 300 300 300 300 301 302 302 303 303 302 302 302 302 301 301 300 299 298
298 298 298 298 297 298 298 298 298 298 298 298 298 297 297 297 297 297 296 296 296 296 296 296 295 295 295 295 295 295 295 295 295 296 297 297 298 298 298 299 299 299 299 299 299 299 300 300 300 300 301 300 300 301 301 301 301 301 301 301 300 299 299 298 298 298 299 299 300 300 300 301 301 301 301 302 302 302 300 300 300 299 298 297 297 297 296
298 298 298 297 297 298 298 297 298 298 297 297 297 297 297 296 296 295 295 294 294 294 294 294 294 294 294 293 293 294 293 293 293 294 294 295 296 296 297 297 298 299 299 299 300 300 300 299 300 300 300 300 300 300 300 301 301 301 300 299 298 298 297 297 298 298 298 299 299 300 300 300 300 300 300 300 300 299 298 297 297 296 296 296 296 296 295
298 298 298 297 297 297 298 297 298 297 297 297 296 296 295 295 294 294 293 293 293 293 293 292 292 292 292 292 292 292 291 291 291 291 291 292 293 294 295 295 296 297 298 298 299 299 298 298 298 298 299 300 300 300 300 301 300 299 298 297 297 297 297 297 297 297 297 297 298 298 298 298 299 299 298 298 297 297 296 296 296 295 295 295 295 295 295
298 298 298 298 297 297 297 297 297 297 296 296 295 294 294 293 293 293 292 292 292 291 291 291 291 291 291 291 290 290 290 290 290 290 290 290 292 293 293 294 294 295 295 296 297 297 297 297 297 297 298 299 300 300 300 300 299 297 297 296 296 296 296 296 296 296 296 296 296 297 297 297 297 296 296 296 296 296 296 296 296 296 295 295 295 295 295
298 297 298 298 297 297 297 297 297 296 296 295 294 293 293 293 292 292 292 292 291 291 291 290 290 290 290 290 290 290 289 289 289 289 289 290 291 291 291 292 292 293 294 295 295 296 297 297 297 297 298 299 299 300 300 298 297 296 296 295 295 296 296 296 296 295 295 295 295 296 296 295 295 295 295 296 296 296 296 296 296 296 296 296 296 296 296
297 297 297 297 297 297 297 296 296 296 295 294 293 293 293 292 292 292 291 291 291 291 290 290 290 289 290 289 289 289 289 289 289 289 289 289 289 289 289 290 290 291 292 294 294 295 296 296 297 297 298 299 299 300 299 297 296 296 296 296 296 296 296 295 295 296 296 296 296 296 296 296 296 296 296 296 296 296 296 296 296 296 296 297 297 297 296
297 297 297 297 297 297 296 295 295 295 294 293 293 293 292 292 291 291 291 291 291 290 290 290 290 289 289 289 289 289 289 289 289 289 289 289 289 289 289 290 290 291 292 293 294 294 295 295 296 297 298 299 299 299 297 296 296 296 296 296 297 296 296 296 296 296 297 297 297 297 297 297 297 297 297 297 297 297 297 297 297 297 297 297 297 297 296
297 297 297 296 296 296 296 295 295 295 294 294 293 292 292 291 291 291 291 291 291 290 290 290 290 290 289 289 289 289 289 288 288 289 289 289 290 290 290 290 291 291 292 293 294 295 295 294 296 297 299 299 299 297 296 296 297 297 297 297 297 297 297 297 297 297 297 297 297 297 297 297 297 297 297 297 297 297 297 298 298 298 297 297 297 296 296
297 297 297 296 296 296 295 295 295 294 294 293 293 292 292 291 291 291 290 290 290 290 290 290 290 290 290 289 288 288 288 288 288 288 289 289 290 290 291 291 292 292 293 294 295 296 295 295 296 298 299 299 298 296 296 297 297 297 297 297 297 297 297 297 297 297 297 297 297 297 298 298 298 298 298 298 298 298 298 298 298 298 297 297 296 295 295
297 296 296 296 295 295 295 295 295 294 294 293 292 292 291 290 290 289 289 289 289 289 290 290 290 290 290 289 289 288 288 288 288 288 288 289 290 290 291 292 292 293 294 295 296 296 296 296 298 299 300 299 297 296 297 297 297 297 297 297 297 297 297 297 297 297 297 298 298 298 298 298 298 298 298 298 298 298 298 298 297 297 297 296 295 294 295
296 296 295 295 295 295 295 295 294 294 293 291 291 290 289 289 289 288 288 289 289 289 289 290 290 290 290 290 289 289 288 288 288 288 289 289 290 290 291 292 293 294 295 296 297 297 297 298 298 299 299 298 297 297 298 298 297 297 297 297 297 297 297 297 297 297 298 298 298 298 298 298 298 298 298 297 297 297 297 297 297 296 296 295 294 294 294
296 295 295 295 295 295 295 294 294 294 292 291 290 290 289 289 289 289 289 290 290 290 290 290 290 290 290 290 289 289 289 289 288 288 289 289 290 291 292 293 293 294 295 296 296 297 298 298 298 298 298 298 298 298 298 298 298 297 297 297 297 297 297 297 297 298 298 297 297 297 297 298 298 297 297 297 297 296 296 296 296 295 294 294 294 294 294
295 295 295 295 295 295 294 294 294 294 293 293 292 292 291 290 290 290 290 291 291 291 290 290 289 289 289 289 289 288 288 289 290 289 289 289 290 291 292 292 293 293 294 294 295 297 298 298 298 298 298 298 298 298 298 298 298 297 297 297 297 297 297 298 298 298 298 297 297 296 297 297 297 297 296 296 297 296 296 296 295 294 293 293 294 294 294
295 295 295 295 295 294 294 294 294 293 293 293 293 292 292 291 291 291 290 290 291 291 291 290 289 288 287 288 289 288 288 289 291 291 290 290 290 291 291 292 292 292 293 294 295 297 297 297 298 299 298 298 298 298 297 297 298 297 297 297 297 297 298 298 298 298 298 297 297 296 296 296 296 296 296 296 296 296 295 295 294 293 293 294 294 294 293
295 295 295 295 294 293 293 292 292 292 292 292 292 292 291 291 291 290 289 289 290 291 291 291 291 289 287 287 288 288 287 287 290 292 292 292 292 292 292 292 293 293 293 294 295 295 296 297 298 298 298 298 298 297 297 297 297 297 297 297 298 298 298 298 297 297 297 297 296 296 296 296 296 296 296 296 295 295 295 294 293 293 293 293 293 292 293
296 295 295 295 294 294 292 292 292 292 292 292 292 291 290 290 290 289 288 287 288 290 291 291 291 291 289 287 287 287 287 286 287 290 292 292 293 293 293 293 293 293 294 294 295 295 295 296 297 297 297 297 297 297 297 297 297 297 297 298 298 298 297 297 297 297 296 296 296 296 295 295 296 296 296 296 295 295 294 293 292 292 292 291 291 291 292
296 295 295 295 295 294 293 292 292 291 292 292 292 291 290 290 289 288 287 286 287 289 291 291 291 291 291 289 286 286 286 286 286 287 289 290 291 292 292 292 292 292 293 293 293 294 295 296 296 296 296 297 297 297 297 297 297 297 297 297 297 297 297 297 297 296 296 296 296 295 295 295 296 296 296 296 295 295 294 293 292 292 291 291 290 290 291
296 295 295 295 294 294 294 293 293 292 292 292 291 291 290 290 289 288 287 287 286 287 289 291 291 291 291 290 288 285 285 285 286 286 286 287 288 289 290 290 290 291 291 291 292 293 293 294 295 295 295 295 295 296 296 297 297 298 297 297 296 296 296 296 296 296 295 295 295 295 296 296 296 296 296 295 295 293 292 291 291 291 291 290 290 290 291
295 295 295 295 295 295 295 295 294 293 292 291 291 290 290 290 289 289 288 287 286 285 287 290 291 291 290 290 289 286 285 285 285 286 286 286 286 287 288 289 289 290 290 290 290 291 291 292 293 294 294 295 295 295 295 296 296 297 297 296 296 296 296 296 295 295 295 295 295 295 295 295 296 296 295 294 292 291 290 290 290 290 290 291 291 291 292
295 295 295 295 295 295 295 295 294 293 292 291 291 291 291 291 290 290 289 288 288 286 286 287 290 291 290 290 289 287 285 284 285 285 286 286 286 285 286 286 287 288 288 289 289 290 290 290 291 291 292 293 294 295 296 296 296 296 296 296 295 295 295 295 295 295 295 295 294 294 294 294 294 294 293 291 290 290 289 290 290 291 291 291 291 291 291
296 295 295 296 296 295 294 294 294 294 292 292 292 292 292 291 290 290 289 290 290 289 287 286 287 288 289 290 289 288 286 285 284 285 285 285 285 285 284 285 285 286 287 288 288 289 289 289 289 289 290 290 291 292 293 294 294 295 295 294 294 294 293 293 293 293 293 293 292 292 292 292 291 291 290 289 289 289 290 290 291 291 291 291 291 291 291
296 295 295 295 295 295 294 294 295 294 293 292 292 293 292 291 290 290 290 291 291 291 289 288 287 287 287 287 288 287 286 285 285 285 285 285 285 284 284 284 284 285 286 286 287 287 288 288 288 289 289 289 289 289 290 290 291 291 291 291 291 291 290 290 290 290 290 290 289 289 289 288 288 288 287 288 288 289 290 290 290 290 290 290 291 291 291
296 296 295 295 295 295 294 294 294 294 294 293 293 293 293 292 291 291 291 292 291 291 291 290 289 287 286 286 285 285 286 286 285 285 284 285 285 285 284 284 284 284 285 285 286 286 286 287 287 287 288 288 288 288 288 289 289 289 289 289 289 289 289 289 289 289 288 288 288 288 287 287 287 286 286 287 287 288 289 289 290 290 290 290 291 291 291
296 296 295 295 295 295 295 295 295 294 293 293 293 293 293 292 292 292 292 292 292 291 291 290 289 289 287 286 286 285 285 285 285 285 284 285 285 285 285 285 284 284 284 285 285 285 285 286 286 286 287 287 287 287 287 288 288 288 288 288 288 288 288 288 288 287 287 287 286 286 286 286 286 286 286 286 287 287 287 288 289 290 290 290 290 291 291
296 296 296 296 295 295 295 296 296 295 294 294 294 294 293 292 293 293 292 291 291 291 291 290 289 289 288 287 287 286 286 286 285 285 285 285 285 285 285 285 285 285 284 284 284 285 285 285 286 286 286 286 286 286 286 287 287 287 287 287 287 287 287 286 286 287 286 286 285 285 285 285 286 286 286 286 286 286 287 288 288 289 289 290 290 290 290
296 296 296 296 296 296 295 296 296 295 295 295 295 294 292 292 293 293 292 291 291 291 291 290 289 289 288 288 287 287 286 286 286 286 285 285 285 285 285 285 285 285 284 284 284 284 285 285 285 285 285 286 286 285 285 285 285 286 286 286 286 286 285 285 285 285 285 285 284 284 285 285 285 285 285 285 285 285 286 287 288 288 288 289 289 289 289
296 296 296 296 296 296 295 296 296 295 295 295 295 294 293 292 292 292 292 292 291 291 291 291 290 289 289 288 287 286 286 286 286 286 285 285 285 285 285 285 285 284 284 284 284 284 284 284 284 285 285 285 285 285 285 285 285 284 284 284 284 284 284 284 284 284 284 284 284 284 285 285 285 285 284 284 284 284 286 287 287 287 287 287 287 287 287
Wind_Speed
6 5 6 8 7 7 6 5 5 5 6 7 5 2 4 2 4 5 5 2 0 3 2 5 5 5 6 6 7 14 21 22 18 14 14 16 18 17 16 15 14 13 14 13 12 13 13 13 12 11 11 10 8 6 7 9 11 11 11 10 9 9 7 6 6 6 5 4 3 4 3 3 3 2 2 3 3 6 8 10 11 12 14 15 16 18 21
5 6 6 7 7 7 7 7 6 4 6 6 6 3 2 2 2 5 2 3 1 3 2 4 6 9 12 14 14 7 6 14 17 18 19 20 20 20 19 18 16 15 15 13 11 11 10 10 10 9 10 10 9 7 7 7 7 8 8 7 8 9 7 5 5 6 4 3 2 2 1 1 1 1 1 2 3 4 5 5 6 7 8 10 12 15 18
5 5 6 7 7 7 6 7 8 6 6 6 5 5 5 4 3 2 7 7 3 3 5 9 14 19 19 17 19 20 16 8 3 10 14 18 22 23 20 18 18 18 17 15 13 10 10 11 11 10 9 8 9 9 8 7 5 4 3 3 5 8 7 5 5 4 3 3 3 2 2 1 1 2 3 4 4 4 5 6 6 7 9 10 10 11 12
3 4 6 7 7 8 7 7 6 5 5 4 2 3 4 4 4 6 9 6 5 4 7 11 14 18 16 13 16 21 21 21 18 14 11 6 13 22 23 22 21 20 17 16 14 11 8 7 6 5 4 5 6 5 4 4 4 3 2 2 3 5 6 5 5 4 3 4 4 4 4 4 4 4 4 5 5 5 6 6 6 6 8 10 11 11 11
2 3 4 6 7 8 5 4 3 1 2 3 4 4 5 6 5 4 5 2 5 4 7 9 8 10 12 13 18 21 20 21 23 23 24 18 4 10 18 23 23 20 18 19 17 13 9 7 7 5 4 5 5 2 1 1 1 1 2 2 2 2 2 3 4 4 4 3 3 3 4 5 6 6 7 7 7 8 9 9 9 8 8 8 10 12 14
2 1 4 6 5 2 4 3 4 2 2 7 6 4 6 7 5 4 3 3 6 8 8 9 8 8 12 19 23 24 21 21 24 25 23 16 8 5 10 18 21 21 22 22 19 14 10 9 9 6 2 1 2 2 1 1 1 2 2 1 2 1 1 0 1 2 2 2 3 4 5 5 6 6 6 7 8 9 10 10 11 11 11 10 10 11 13
2 2 6 5 2 5 2 5 9 7 4 8 8 6 9 11 7 6 8 7 9 11 11 13 14 13 18 25 27 27 24 21 22 25 23 17 13 13 15 19 20 19 19 17 14 12 10 9 7 3 2 1 2 1 2 2 3 3 2 1 2 2 2 3 3 3 3 2 3 4 5 6 6 6 6 6 6 7 8 9 10 11 12 13 13 13 14
2 2 3 2 4 3 4 9 9 8 7 6 7 8 11 12 9 7 8 7 9 13 16 17 17 13 17 23 26 26 25 22 22 22 20 18 18 17 15 15 15 15 14 11 8 7 6 7 7 2 3 2 2 4 4 4 3 4 3 4 4 3 3 5 4 4 4 3 4 5 6 7 8 8 8 8 7 8 9 10 11 12 12 13 14 14 15
3 3 2 2 2 6 6 6 6 6 6 4 3 5 5 9 10 8 7 6 9 13 17 20 19 13 13 16 19 23 22 19 20 22 18 15 13 11 10 10 9 7 5 5 4 2 2 3 3 4 2 2 2 3 5 4 5 6 6 6 6 5 5 5 5 5 6 6 6 6 7 7 8 8 8 9 9 10 11 11 12 13 13 14 15 15 16
3 4 1 2 1 2 3 3 5 8 10 8 3 4 3 7 13 14 10 7 9 12 15 20 21 15 11 7 10 19 20 16 17 20 17 14 12 10 9 8 9 9 6 2 3 3 3 3 0 4 5 6 6 6 6 7 8 8 8 8 9 9 8 8 8 8 9 9 9 9 9 9 10 11 11 12 12 13 13 13 13 14 14 15 17 18 18
3 4 2 2 2 2 3 5 8 12 15 13 6 3 3 6 13 17 13 9 11 13 14 18 16 11 6 2 8 16 17 15 17 17 14 12 11 11 12 10 7 8 7 3 1 2 4 3 1 2 4 6 9 11 11 10 10 11 11 11 12 12 12 12 11 11 11 12 13 13 13 13 14 14 15 16 16 15 15 15 15 16 17 18 19 19 19
3 4 3 2 2 1 3 6 9 15 17 12 5 3 1 8 14 17 16 13 14 16 16 16 11 6 4 4 9 14 14 14 16 16 15 14 12 11 13 13 9 6 5 5 4 3 4 6 6 6 7 8 9 11 11 11 12 13 13 13 13 13 14 14 13 13 14 14 14 13 13 14 14 14 15 15 16 16 15 15 15 16 18 19 19 19 19
2 3 2 1 1 1 4 8 11 15 13 7 4 3 4 10 13 15 16 15 16 16 16 13 9 7 8 10 12 13 13 15 17 16 15 15 14 13 13 13 13 10 7 6 7 5 3 5 8 9 10 11 12 13 13 14 14 14 14 14 13 14 14 15 15 16 15 15 13 12 13 14 15 16 15 15 16 17 16 15 15 17 19 19 20 19 20
2 1 2 2 1 2 5 9 12 12 6 2 2 2 7 10 11 14 14 14 16 18 17 14 12 12 13 13 14 14 15 16 17 17 18 17 16 14 13 14 16 16 13 12 11 9 8 9 10 11 11 13 14 15 16 16 17 16 17 16 15 16 16 16 16 16 16 16 16 16 17 18 18 18 17 17 18 18 17 17 18 20 20 20 20 20 20
1 2 4 2 1 1 2 6 8 7 3 3 2 4 8 10 12 15 15 15 18 19 18 17 17 16 15 14 14 14 15 16 17 18 18 19 19 18 17 16 17 18 17 15 14 15 15 15 16 16 16 17 18 18 19 17 16 15 15 16 16 17 18 18 18 18 18 18 18 18 18 17 17 18 17 16 17 19 19 20 20 21 22 21 21 22 22
2 3 2 1 3 3 6 4 2 2 1 0 3 6 8 10 13 16 17 17 18 18 18 19 18 18 17 16 16 17 17 18 19 19 19 20 21 20 19 19 19 20 20 18 18 19 19 19 18 17 18 20 20 19 18 16 16 16 16 17 18 19 19 19 19 19 18 16 15 15 14 13 14 16 15 15 16 17 18 20 22 22 23 23 23 23 23
2 3 1 2 5 9 10 8 6 8 9 10 12 13 13 14 16 17 17 18 18 18 18 19 19 19 19 19 19 20 21 21 22 22 22 22 22 22 22 22 22 22 22 22 22 22 20 20 18 15 15 18 17 15 13 12 13 14 15 17 18 18 18 19 19 19 19 17 16 16 17 17 18 19 18 18 18 17 16 19 22 23 22 23 22 22 21
3 4 10 14 13 11 11 11 11 13 15 16 18 19 18 18 19 18 18 18 19 19 19 19 19 19 19 20 20 20 20 20 21 22 22 22 21 21 21 22 22 23 23 23 23 23 22 22 21 18 17 18 18 17 16 15 14 15 16 18 19 19 19 21 22 23 23 23 23 23 23 23 23 22 20 19 20 19 17 18 20 21 22 22 21 20 20
3 3 8 13 12 11 12 14 14 16 19 20 20 19 18 19 19 18 18 18 18 18 18 18 19 20 20 20 21 22 22 22 23 23 23 23 23 22 22 22 22 22 21 22 23 21 19 19 17 15 14 16 17 19 21 21 20 20 19 19 20 20 22 23 25 26 26 26 26 25 25 24 23 21 20 19 19 19 19 19 19 20 21 21 21 21 20
2 0 7 15 14 12 16 18 19 20 22 22 21 19 18 18 17 16 16 16 17 18 18 18 20 21 21 21 21 22 23 24 25 25 25 26 26 26 26 26 25 23 22 21 20 19 17 16 14 13 14 16 19 22 24 24 22 20 20 21 23 24 26 28 29 30 29 28 27 26 26 26 24 23 23 23 22 22 22 22 22 22 22 23 24 22 18
3 3 10 17 14 11 16 21 20 21 22 21 18 17 15 14 14 15 15 16 16 17 18 18 19 20 22 22 22 23 23 23 24 25 25 25 26 26 27 28 27 26 25 23 21 19 16 15 16 18 18 18 20 22 24 23 21 21 22 25 27 28 30 31 31 31 30 29 29 30 31 31 31 30 29 27 26 25 26 25 25 25 23 21 20 17 14
3 3 9 13 7 4 12 19 19 19 19 16 14 14 14 14 15 15 16 16 16 16 16 17 17 19 21 21 22 22 23 23 23 23 23 23 24 25 26 28 28 28 27 26 25 23 19 16 16 18 17 16 16 18 20 21 22 23 25 27 28 30 30 30 30 30 30 30 31 32 32 32 30 30 29 27 25 23 23 23 22 21 18 16 14 13 13
1 5 12 13 8 7 11 16 16 16 16 14 14 15 15 15 16 15 15 16 16 16 17 17 16 17 19 20 20 21 22 21 21 20 19 19 20 21 23 26 28 29 27 25 26 26 25 21 18 17 16 16 16 17 19 21 21 22 24 25 26 27 28 28 29 30 31 32 31 30 31 31 29 27 24 22 21 21 21 20 19 18 16 14 12 11 12
3 8 12 12 10 10 12 14 14 13 13 15 16 16 15 15 15 15 15 16 17 17 18 17 17 18 20 21 23 23 24 23 22 22 22 22 22 22 22 23 24 26 24 23 22 23 24 23 19 16 15 16 17 18 20 20 20 20 21 22 23 25 26 27 29 29 29 28 27 27 28 28 28 26 23 21 20 19 17 16 16 15 14 12 11 10 10
6 7 7 8 9 10 12 12 12 12 13 15 16 15 14 14 15 16 16 16 16 16 16 17 17 17 18 20 21 22 22 23 22 22 22 22 22 20 17 17 18 19 19 20 19 18 18 18 16 13 11 13 15 17 19 20 20 20 20 21 22 23 24 25 25 24 21 19 17 18 20 21 23 24 23 22 21 18 15 13 12 12 11 12 14 14 13
7 7 7 9 9 9 10 12 14 14 14 14 14 13 12 13 15 17 16 14 14 15 16 17 17 17 16 18 19 19 20 20 21 20 18 18 18 16 14 14 14 12 12 15 16 15 14 14 14 13 13 15 17 19 20 20 19 19 18 19 18 18 17 16 16 14 12 9 9 12 16 19 21 21 20 20 20 20 21 21 20 19 18 16 15 15 14
9 9 10 9 9 9 11 12 14 14 12 11 11 11 12 13 14 15 14 13 14 15 15 16 16 17 17 17 17 18 18 19 20 20 19 18 17 16 16 17 16 14 13 13 14 14 14 14 13 13 13 15 17 18 18 18 18 16 14 12 9 8 7 7 6 5 3 3 6 11 15 19 20 21 21 20 21 23 25 25 25 24 22 18 16 14 14
10 11 10 9 9 11 12 11 10 10 9 9 10 11 11 12 13 13 13 13 14 15 15 15 16 17 17 17 17 18 18 19 20 22 21 20 18 17 16 18 19 19 18 18 17 16 16 15 15 14 13 13 14 15 15 14 12 9 6 3 2 1 1 2 4 6 8 9 10 14 17 19 20 21 22 23 24 24 24 23 23 23 22 20 18 17 16
11 11 10 9 10 11 11 9 8 7 8 9 11 11 11 12 12 12 13 14 15 15 15 15 15 15 15 16 17 17 18 19 20 21 20 18 16 16 16 18 20 21 21 21 20 19 17 15 13 13 13 13 12 12 11 9 5 5 6 6 6 5 4 5 7 10 11 12 14 18 20 22 24 24 25 24 24 22 22 21 21 21 21 20 19 18 17
11 10 10 9 9 9 9 9 9 8 8 10 11 11 11 11 11 11 12 14 15 16 15 15 15 15 15 16 16 17 18 19 19 19 18 17 17 17 18 19 21 23 23 22 21 20 19 17 14 13 13 12 11 10 9 8 10 12 12 12 12 10 10 10 11 12 14 16 19 21 23 23 24 24 24 24 23 22 21 21 20 20 20 18 16 16 15
10 9 8 9 9 9 9 9 8 7 8 9 10 10 11 11 11 12 12 13 15 16 16 16 16 16 16 16 16 16 16 16 15 15 16 16 16 16 16 17 17 17 18 18 19 20 20 19 17 15 14 13 11 10 11 14 17 17 15 14 13 13 14 16 17 18 19 21 23 24 24 23 23 23 23 23 23 21 20 20 19 18 16 14 13 12 12
8 8 8 8 8 8 7 8 7 6 7 8 9 9 10 11 11 12 12 13 15 17 17 17 17 18 16 15 15 14 13 11 11 11 11 11 11 13 15 15 13 13 14 14 15 16 18 19 17 15 15 14 12 13 18 20 19 17 15 14 15 16 16 17 20 21 20 19 19 18 17 17 17 17 17 17 17 17 17 15 14 13 12 10 10 9 9
7 7 8 8 7 6 6 6 5 5 6 7 7 7 8 10 10 12 12 13 14 15 16 18 20 21 20 17 14 12 12 11 9 9 8 7 8 10 12 11 10 11 12 11 9 10 14 17 19 18 16 15 15 20 24 22 18 16 15 14 15 15 13 13 15 15 11 9 8 7 8 10 10 10 10 9 10 11 12 11 11 12 12 10 9 9 8
5 5 5 5 5 4 4 4 5 5 5 5 6 7 9 10 11 12 13 14 14 15 16 19 21 21 22 21 16 12 12 13 12 10 9 7 6 6 6 5 5 6 9 8 4 6 11 17 20 19 17 18 22 26 25 20 16 16 16 15 15 14 11 11 12 10 7 8 10 10 11 11 11 9 9 9 10 13 14 14 13 13 11 10 10 10 10
3 3 4 5 3 3 3 4 4 4 3 4 6 8 10 10 10 12 14 16 17 15 15 18 21 20 20 22 21 16 13 12 13 13 12 10 9 7 5 4 4 3 1 1 2 8 13 17 20 20 21 24 28 28 23 19 17 17 18 17 16 14 13 12 12 10 9 11 14 15 14 14 14 14 14 14 15 16 15 13 11 9 8 8 8 9 11
4 3 3 2 4 4 3 2 3 4 4 6 8 9 9 8 9 11 14 16 18 17 16 18 20 20 20 21 23 22 17 13 12 15 15 14 14 15 14 14 15 16 15 14 13 15 17 19 22 25 26 28 29 26 20 18 19 20 20 19 17 15 12 11 10 10 10 10 11 11 11 11 13 15 14 13 13 14 12 10 8 6 5 5 6 8 11
4 1 2 4 4 2 1 2 1 2 5 6 8 9 9 8 9 11 13 15 17 19 19 19 19 19 19 19 22 24 21 17 15 18 19 18 18 19 20 21 22 23 24 24 22 22 23 24 25 25 24 25 26 22 18 18 20 21 21 20 18 14 11 11 11 11 11 10 9 8 7 8 10 11 11 10 10 9 7 6 6 5 5 7 8 8 9
3 4 5 3 2 3 4 2 2 3 4 6 8 10 10 10 11 12 13 13 15 18 20 20 18 17 16 16 20 24 23 20 19 20 21 21 22 23 25 25 26 26 25 23 22 22 23 22 22 23 22 23 23 21 18 18 21 22 22 21 16 11 10 12 13 12 11 10 7 5 6 8 9 9 9 8 7 6 5 5 4 5 7 9 9 7 6
2 6 5 3 4 3 2 1 4 3 3 4 6 9 9 10 10 11 10 10 11 13 16 19 21 20 17 15 16 20 22 21 21 22 24 24 25 26 27 27 26 25 22 20 19 19 19 19 20 21 21 21 22 22 21 20 23 25 23 17 12 10 12 14 15 13 10 8 5 4 7 10 10 10 9 9 8 8 8 7 6 6 6 7 7 7 6
5 7 5 3 3 1 1 2 3 2 2 2 4 6 7 7 8 9 10 9 8 8 11 15 19 22 21 17 14 15 18 19 19 21 24 26 26 27 28 28 27 25 22 19 18 17 17 18 19 20 20 20 20 22 22 23 24 23 19 13 11 13 16 16 14 12 10 8 7 7 10 12 11 10 10 10 9 8 8 8 8 8 7 6 6 7 7
7 6 4 2 1 1 2 3 2 2 2 2 4 6 7 6 7 9 11 10 7 6 9 12 14 18 20 19 15 12 14 17 17 18 21 25 27 28 29 28 27 26 24 22 21 19 18 17 18 19 19 18 18 19 22 24 23 21 18 15 14 15 16 14 13 11 11 10 10 11 12 12 11 9 9 8 8 8 7 7 7 7 6 5 3 4 5
8 7 4 3 2 1 1 2 3 3 2 2 5 6 7 7 8 9 11 11 9 6 7 9 10 12 16 18 16 13 13 15 16 16 18 20 22 24 25 25 23 23 23 23 23 23 22 20 18 17 17 16 15 16 19 22 22 20 18 17 16 16 14 12 11 10 10 10 11 11 11 10 10 9 8 8 8 8 8 8 8 7 6 5 3 2 3
10 9 7 6 4 2 2 2 2 3 2 3 5 6 6 7 8 9 10 11 11 9 7 7 8 9 11 15 17 16 14 14 16 17 18 18 18 18 19 19 19 18 19 19 21 22 23 22 21 19 18 17 15 14 15 17 19 18 17 15 15 14 13 11 10 10 11 11 11 10 9 9 9 8 7 7 7 7 7 7 8 8 7 7 6 3 2
12 10 9 8 5 3 3 4 3 2 3 5 5 5 6 7 9 10 10 10 11 11 9 7 7 7 9 12 15 16 16 15 15 15 17 18 18 18 17 16 16 16 16 16 17 18 19 19 19 18 18 18 17 16 15 15 15 14 13 12 11 11 11 11 10 10 11 11 10 9 8 7 6 6 5 5 5 5 4 4 4 4 3 3 3 3 3
13 12 11 10 8 6 5 5 4 5 6 5 4 4 5 7 7 8 9 9 11 12 11 8 7 6 7 10 13 15 15 15 14 13 14 17 19 19 17 16 15 14 14 14 15 16 17 16 15 15 15 15 16 16 15 15 14 13 12 11 10 10 9 9 8 8 8 8 9 9 8 7 6 5 4 4 3 3 2 3 4 4 4 4 4 3 2
13 13 12 12 11 9 8 7 6 6 6 6 5 5 4 5 5 6 7 8 10 12 13 11 9 7 6 6 9 12 13 15 16 15 14 15 17 18 17 16 15 14 13 13 13 14 14 13 12 12 12 12 12 13 13 13 13 12 12 11 11 10 9 7 6 5 5 5 6 6 6 5 5 4 4 4 4 5 5 6 5 5 5 4 4 4 3
13 14 15 14 13 12 12 10 7 5 6 7 9 8 4 3 4 5 7 8 8 10 12 12 11 9 7 5 5 8 10 13 16 17 15 14 15 16 16 16 16 14 13 12 12 12 11 10 9 9 10 10 10 11 11 11 10 10 10 10 10 10 10 8 7 6 5 3 2 2 2 2 4 5 5 6 7 7 7 7 7 6 6 6 5 5 5
12 15 16 16 15 14 13 10 9 8 8 8 9 8 5 4 4 4 6 7 5 5 9 11 10 10 9 8 6 7 9 10 13 15 16 14 14 14 15 16 16 16 14 13 12 12 11 10 9 8 8 8 8 8 9 9 9 8 8 8 8 8 8 7 6 5 4 3 2 3 5 7 6 5 6 8 9 9 8 8 8 7 7 7 7 7 6
11 13 15 16 16 16 15 12 11 12 11 9 9 9 7 4 4 1 3 4 2 1 4 8 8 7 8 8 8 8 8 9 11 13 14 13 13 14 15 15 16 16 15 14 13 12 12 11 11 10 9 7 7 7 7 6 6 7 8 8 7 7 7 6 4 3 4 4 5 6 7 7 6 5 7 10 11 9 8 9 9 9 9 9 9 9 8
13 13 14 15 15 16 18 17 15 13 12 10 11 12 10 5 2 3 4 3 3 3 3 3 5 5 6 7 7 7 8 8 9 11 11 11 11 12 14 14 15 15 15 14 14 13 12 12 12 12 11 10 9 8 7 6 5 5 5 5 5 5 5 5 4 3 4 6 7 9 10 11 10 10 10 11 10 9 8 8 9 9 9 10 10 10 10
14 14 15 15 14 14 16 18 17 15 14 12 11 12 12 7 4 6 8 5 3 5 6 4 2 3 5 5 5 6 6 7 7 8 9 10 10 10 12 12 12 13 14 14 14 14 13 13 13 12 12 12 12 11 10 9 8 6 6 5 4 5 5 5 4 3 3 4 6 9 12 12 12 11 10 9 7 5 5 6 8 9 10 10 11 11 12
16 16 16 15 13 12 13 16 17 18 20 18 13 11 11 10 8 9 9 7 5 7 9 7 5 5 5 4 3 3 3 5 5 6 7 8 8 9 9 9 9 10 12 13 13 13 12 12 13 13 12 12 12 12 12 11 10 8 7 7 6 6 6 6 5 5 5 6 7 8 9 11 11 11 10 8 5 4 4 5 7 9 10 10 11 12 12
Wind_Direction
292 297 303 310 308 300 304 307 303 318 351 0 355 273 233 130 120 221 246 41 71 245 53 73 93 87 68 72 118 150 151 152 160 165 168 169 163 162 163 160 160 152 138 129 120 118 124 129 131 131 129 128 128 128 131 135 138 140 139 137 136 135 137 141 135 125 129 142 146 147 151 156 164 168 197 221 232 238 247 256 261 266 269 266 265 264 263
330 338 330 328 326 311 308 312 313 358 36 16 355 327 302 62 135 211 176 72 296 249 87 74 62 53 49 45 40 45 144 164 174 181 186 182 171 164 162 162 164 162 157 153 141 125 121 129 137 141 144 146 142 129 117 118 130 140 146 149 145 143 150 166 164 153 155 167 146 127 142 160 197 224 244 249 259 264 268 280 292 295 288 279 272 266 263
343 339 327 324 327 317 319 327 328 356 20 2 354 347 348 18 4 359 66 60 317 298 56 57 51 47 46 46 39 26 16 22 129 183 203 203 183 165 160 167 167 162 161 160 158 152 138 133 133 133 143 154 152 148 144 145 156 165 176 192 167 160 170 174 156 143 153 167 157 155 177 204 252 268 271 268 270 275 277 285 299 306 306 302 295 284 274
310 316 327 330 347 355 352 340 332 358 16 359 357 4 15 38 13 14 44 33 295 304 46 55 57 55 49 40 37 37 33 28 33 36 15 305 209 177 165 167 164 162 166 164 162 165 159 152 147 134 154 184 180 180 182 183 193 194 192 191 165 167 177 167 151 154 185 193 191 197 205 209 218 231 248 260 268 276 281 287 292 296 302 304 302 299 292
255 288 337 350 13 11 339 306 310 344 50 55 45 17 29 60 66 56 57 357 295 330 35 48 53 56 53 42 40 47 46 36 31 30 25 12 331 175 163 165 160 153 154 150 150 157 152 144 145 128 127 169 184 227 309 98 142 139 110 82 77 114 151 155 165 188 206 202 197 210 225 234 234 234 239 248 256 262 267 274 279 282 291 298 300 299 296
213 269 18 15 13 326 260 292 344 334 116 95 80 34 23 48 73 102 91 26 4 13 34 47 40 43 61 59 51 48 45 41 37 32 29 31 37 80 130 150 150 147 149 147 146 152 151 143 141 127 99 201 224 285 315 128 232 216 166 80 26 29 2 296 224 236 251 237 218 225 236 243 246 249 253 259 262 263 265 269 271 272 275 277 281 285 289
181 54 46 30 294 237 215 27 13 3 55 93 96 69 35 30 39 59 56 42 30 29 39 49 44 44 59 60 52 46 45 46 44 38 37 49 70 85 103 119 124 129 140 148 152 154 156 167 166 126 25 266 213 215 187 206 257 257 223 241 255 245 270 282 277 287 302 295 260 249 245 242 247 257 266 273 278 278 281 285 285 280 275 271 269 270 274
133 86 94 175 241 288 33 38 18 6 15 40 64 56 29 19 29 53 53 44 38 36 36 38 38 42 57 56 49 44 44 44 44 41 43 54 69 78 89 103 114 116 116 121 134 146 155 179 192 172 71 102 184 216 207 211 268 288 277 264 263 259 265 275 281 290 295 289 276 270 268 270 274 276 279 285 285 279 279 283 287 288 287 283 277 270 267
121 126 184 220 317 346 2 15 9 16 19 11 68 84 30 6 14 30 39 38 36 36 30 22 20 34 56 53 39 32 33 39 39 36 36 45 54 56 55 63 80 87 88 102 118 137 130 143 203 238 274 346 312 247 227 233 259 266 262 268 275 265 252 256 261 262 263 261 261 266 273 280 284 284 287 288 283 279 277 277 278 280 282 282 279 273 269
129 130 217 294 333 296 286 315 352 7 5 349 0 90 55 349 356 12 29 33 23 27 28 17 16 34 57 49 20 19 21 25 25 21 23 30 31 32 36 41 45 36 19 44 128 142 141 117 129 264 280 306 296 268 262 267 266 263 261 263 262 252 247 253 255 254 255 252 250 253 259 265 268 269 273 274 273 273 273 273 274 273 271 269 267 267 266
127 131 163 226 201 222 300 327 344 351 351 348 354 63 56 329 342 8 26 27 18 23 25 19 20 42 63 16 353 4 4 6 11 8 5 7 7 18 26 23 28 34 23 14 126 180 204 211 281 312 300 297 288 283 287 283 273 268 263 259 260 259 260 263 263 261 259 259 262 265 266 267 268 269 273 274 273 271 271 271 269 266 265 264 264 266 266
173 172 178 209 171 80 335 322 339 344 344 353 30 99 24 314 329 2 19 19 17 21 21 22 29 53 58 3 357 358 349 348 358 0 0 356 339 334 350 356 358 9 8 354 341 316 256 251 275 289 288 290 289 287 287 279 273 274 273 270 272 270 268 269 268 266 267 271 276 276 272 269 268 271 277 277 274 274 277 276 268 262 262 262 264 267 270
182 180 167 126 88 27 312 313 342 347 341 2 79 149 272 303 327 360 11 6 6 11 14 19 19 11 5 356 350 349 340 335 340 340 340 343 337 328 324 327 330 330 325 324 325 322 292 276 281 280 279 285 286 279 273 270 271 275 275 272 271 269 269 271 271 272 274 274 271 266 264 264 262 262 267 271 271 273 272 267 260 258 260 263 265 268 271
62 109 120 81 52 246 276 311 347 3 360 23 106 267 299 317 339 356 359 0 9 11 10 10 1 349 345 342 341 340 331 328 331 330 327 326 329 329 321 314 315 314 308 306 305 302 296 286 283 280 279 283 286 283 276 272 271 273 271 269 269 270 271 273 275 277 275 268 264 265 267 267 265 263 263 264 267 269 266 260 257 257 260 264 267 269 271
46 54 69 65 273 259 307 322 350 27 70 188 226 302 321 334 352 2 6 15 17 11 4 0 355 347 340 336 337 335 328 323 320 318 319 319 317 317 314 308 306 303 300 298 296 296 295 287 281 279 278 279 281 284 284 282 279 277 272 268 270 272 274 276 279 280 279 276 276 277 276 273 270 266 265 264 266 268 265 259 255 256 259 261 264 267 270
51 47 43 226 200 81 44 6 341 71 73 13 6 354 348 0 12 11 9 9 6 359 354 350 344 340 338 333 328 324 321 320 317 312 311 312 310 308 305 302 302 300 297 292 289 288 288 290 289 282 275 276 278 279 282 282 279 278 276 273 274 276 277 281 282 281 280 280 278 273 269 266 264 262 263 264 266 270 268 257 252 254 257 259 262 265 268
92 131 124 72 80 70 49 26 20 26 20 21 25 20 16 17 15 8 0 356 352 348 344 339 331 327 325 321 320 318 313 310 310 309 307 306 306 304 298 296 298 299 296 293 290 284 280 285 293 287 271 270 273 276 281 280 276 275 274 274 276 278 279 281 281 277 273 270 266 264 263 264 266 266 266 263 263 269 271 258 251 253 255 256 258 261 264
45 71 62 50 41 34 29 21 17 22 24 21 18 14 10 4 358 354 350 344 339 337 335 332 328 323 320 317 314 312 309 306 305 305 303 302 304 304 300 299 299 299 297 294 291 288 282 280 282 283 275 268 267 271 276 276 273 272 273 276 279 281 280 278 276 274 272 269 267 268 269 270 272 272 271 266 263 266 267 257 248 247 249 250 254 260 264
26 49 51 38 17 6 20 24 18 16 16 11 5 0 355 349 343 341 339 332 325 325 326 326 323 318 314 314 311 306 304 302 301 301 301 298 297 297 298 300 301 302 304 302 295 289 285 278 271 269 268 265 265 269 272 274 276 278 280 283 282 278 276 274 271 272 274 273 272 272 271 270 270 269 267 264 260 259 258 253 248 246 248 253 259 262 261
21 50 29 21 10 8 15 15 11 7 0 353 350 347 342 339 335 331 327 322 319 317 316 317 317 313 310 310 310 307 305 302 299 299 299 296 295 293 291 293 295 297 303 308 303 293 286 282 275 270 269 267 267 270 274 277 280 281 281 281 278 274 273 273 273 274 273 271 268 268 268 267 265 263 262 259 257 255 254 254 255 257 260 262 261 259 256
347 348 19 19 16 9 1 356 353 351 347 342 341 338 332 332 335 333 327 321 319 317 316 315 315 312 310 309 308 306 304 301 299 298 296 294 294 292 289 289 291 291 292 299 303 301 295 289 285 287 288 283 275 274 275 277 279 278 277 275 273 272 273 274 273 271 269 267 266 268 270 270 267 265 263 261 260 257 256 257 261 263 264 260 255 254 256
354 351 19 22 19 334 336 340 338 340 343 343 341 338 334 333 333 331 326 323 318 314 313 313 312 311 310 310 308 305 302 301 299 298 296 294 293 291 289 287 286 284 284 288 292 293 291 289 287 287 288 288 283 279 278 278 277 276 275 273 272 274 274 273 271 268 268 270 272 271 270 268 266 264 262 260 258 257 256 258 259 256 253 250 251 257 256
76 7 4 0 346 310 321 333 334 336 343 347 346 343 338 334 331 326 323 323 321 316 315 313 309 306 305 305 304 302 301 301 299 296 294 293 291 290 289 286 284 283 283 286 287 284 281 281 279 275 275 279 280 277 273 271 271 273 275 275 275 276 276 275 276 276 276 275 273 268 263 260 259 259 257 254 253 252 251 253 252 247 247 247 245 245 238
21 357 347 340 337 330 329 332 332 333 339 342 340 337 332 331 329 323 318 320 321 319 315 310 305 303 302 300 299 298 296 295 296 294 292 291 291 291 291 290 288 285 281 281 285 283 279 275 272 271 275 278 275 271 268 268 272 278 282 282 281 281 283 285 285 283 279 275 269 262 256 252 251 251 250 248 244 238 234 237 238 235 233 225 202 186 188
348 343 341 337 334 329 325 326 327 329 334 337 336 332 329 326 323 319 319 323 325 322 315 310 311 312 308 302 301 301 298 295 295 295 294 294 293 293 291 291 291 286 277 275 280 283 279 272 265 266 276 281 277 273 272 276 282 287 288 287 287 288 291 291 290 287 283 276 263 251 243 241 242 242 241 239 231 214 192 184 188 183 173 166 158 152 152
357 353 342 332 327 324 324 326 328 329 329 330 331 331 329 324 319 318 319 318 315 313 311 311 314 314 309 307 307 306 302 297 293 290 289 287 285 284 282 283 283 278 271 271 272 270 265 258 251 254 269 279 282 281 281 284 288 290 291 291 291 292 294 294 295 296 294 282 255 233 226 225 224 219 214 214 208 187 163 152 149 144 138 138 139 140 142
4 356 344 333 327 332 334 329 327 331 331 330 333 337 336 329 323 323 324 322 319 319 319 321 321 318 314 313 311 306 304 302 297 291 286 280 276 274 274 274 270 263 260 261 262 260 259 258 256 260 269 279 283 284 284 285 288 291 292 288 285 289 294 289 285 284 263 216 205 203 203 202 198 192 184 177 168 155 144 141 140 138 137 137 138 138 141
344 343 347 340 329 333 337 331 328 335 342 340 338 337 335 334 337 343 346 345 343 339 333 330 329 326 323 321 316 312 312 311 305 300 295 290 285 280 274 270 268 263 257 254 255 258 261 266 269 267 265 272 280 283 283 284 283 281 269 245 229 269 277 224 186 157 144 147 158 165 166 164 161 154 147 141 137 135 134 135 137 138 138 138 139 139 138
331 334 338 334 330 332 335 337 342 352 354 346 342 343 348 353 356 358 357 352 348 344 340 337 335 332 329 327 325 322 319 315 312 309 305 298 289 278 268 263 264 264 261 257 256 256 255 257 260 259 258 263 271 277 278 269 238 184 148 120 101 97 122 148 150 142 134 131 134 137 136 133 132 131 130 130 131 132 134 135 136 137 137 137 137 137 135
328 331 333 337 343 345 350 360 6 5 359 353 353 359 4 5 3 2 0 356 353 353 354 352 348 344 339 336 331 325 319 316 315 311 303 295 287 277 270 268 269 270 269 265 259 254 251 246 240 239 244 250 257 260 249 210 164 140 123 110 103 103 111 118 124 126 124 121 121 122 122 122 124 127 129 129 129 131 133 135 135 134 134 134 132 130 130
321 325 333 344 350 356 7 10 4 0 5 7 6 8 8 7 8 7 2 356 356 2 6 5 358 352 345 339 335 329 322 320 318 311 302 298 296 291 289 290 287 279 272 265 257 251 247 240 232 226 226 233 241 233 201 169 147 133 126 123 120 115 113 115 116 115 114 115 116 115 117 119 123 126 127 128 129 133 138 139 138 136 134 132 128 122 122
321 327 338 345 348 358 10 4 356 11 25 13 6 12 13 9 9 10 5 1 3 9 16 19 15 6 355 346 342 340 338 333 327 319 311 306 304 301 303 306 302 292 282 271 258 247 238 227 215 206 210 222 224 198 171 156 144 139 139 138 131 123 120 123 123 117 111 110 111 111 116 123 127 132 135 136 139 142 140 136 136 137 135 133 129 123 117
326 335 339 341 347 2 10 2 9 39 35 10 3 18 21 14 13 12 10 8 9 12 19 24 23 16 8 359 353 354 359 359 351 341 333 323 310 303 301 299 297 295 292 282 261 244 231 212 195 192 203 210 198 178 167 159 152 150 152 146 134 127 125 132 135 130 120 112 110 114 127 136 141 149 156 156 157 156 150 141 136 136 134 128 121 119 121
340 346 339 336 346 359 13 31 48 55 33 1 0 19 26 24 22 19 14 11 9 9 16 21 20 15 11 8 6 8 13 15 14 13 11 6 350 325 305 287 274 282 293 295 267 211 194 180 174 180 193 193 181 173 170 167 161 159 157 147 136 133 134 136 137 135 129 123 123 125 128 129 131 139 145 142 142 146 148 144 138 132 124 110 101 108 125
346 341 328 337 7 51 76 68 47 22 6 10 25 35 39 38 33 28 24 19 13 9 11 16 17 13 9 9 14 20 23 23 27 33 38 44 49 53 66 90 103 110 107 325 154 159 159 157 160 172 182 182 175 172 170 167 162 158 151 141 134 133 135 131 127 128 130 128 127 128 126 122 123 127 127 123 124 130 135 136 130 119 107 99 98 114 137
312 306 324 26 88 105 97 51 356 352 21 48 50 42 37 36 35 33 29 24 20 15 12 14 17 14 8 6 12 20 27 34 42 47 53 59 63 69 80 88 91 98 107 112 120 132 142 151 162 170 174 175 172 170 166 162 159 154 147 139 134 136 141 137 131 132 133 126 122 125 125 123 128 135 137 132 127 125 123 120 115 109 112 121 120 127 143
320 330 116 112 120 138 281 286 290 37 42 46 40 28 20 19 23 22 18 16 17 17 16 16 17 16 12 7 8 15 26 41 53 57 61 66 70 75 81 85 86 92 99 103 112 128 143 154 161 164 165 166 166 163 155 152 154 155 150 142 137 138 143 144 141 140 137 130 126 133 140 140 137 137 139 138 134 129 127 126 126 130 142 144 138 134 145
9 111 127 138 183 247 286 276 149 109 43 19 7 1 1 6 7 5 5 5 7 10 16 19 19 18 19 15 10 11 20 36 52 61 66 69 71 74 78 77 77 81 88 95 108 127 142 149 152 152 152 153 154 151 147 149 154 156 153 147 141 137 139 145 149 152 153 151 146 141 146 150 144 132 127 129 129 130 134 136 138 139 142 146 151 157 166
108 136 152 197 233 256 294 127 138 125 66 21 352 342 347 357 358 353 355 3 8 9 13 17 20 22 25 26 19 15 18 29 45 58 67 72 74 76 77 77 77 80 86 96 109 123 133 141 146 147 147 148 150 151 151 154 157 157 156 153 147 142 144 149 155 159 159 161 157 131 130 140 141 134 130 132 134 138 142 146 154 163 162 163 173 184 188
166 168 193 239 254 276 42 106 133 123 75 38 343 332 341 353 353 348 351 0 11 19 18 17 17 19 22 26 26 22 22 28 40 53 63 71 77 79 79 79 80 82 86 93 101 111 123 133 139 140 141 144 148 150 152 155 158 158 157 153 147 145 147 150 153 152 150 153 157 147 140 141 141 139 140 144 147 152 159 165 173 185 193 196 196 195 191
188 190 218 259 261 66 52 54 52 48 53 23 334 330 343 355 354 354 359 4 12 31 36 28 18 13 17 23 27 27 31 38 46 53 60 66 70 73 73 73 74 76 79 83 89 97 108 119 126 129 131 134 137 141 146 151 155 155 153 149 144 144 147 148 145 141 141 146 150 148 147 148 151 152 155 158 160 164 171 176 181 191 205 210 194 170 166
194 193 204 220 227 202 100 44 16 16 30 354 322 327 347 359 358 1 11 16 19 34 54 52 34 15 13 20 27 31 39 47 54 59 62 64 67 72 75 76 75 74 74 75 78 84 90 97 105 114 120 123 128 137 144 148 150 150 148 144 141 141 145 147 143 140 147 155 158 157 159 163 166 168 173 180 183 185 189 193 197 204 216 229 232 196 159
195 194 201 215 231 219 197 222 318 2 5 324 314 325 347 2 8 15 22 24 24 27 47 66 58 31 15 19 30 38 46 53 59 63 64 65 68 74 79 83 84 82 78 75 74 75 78 82 88 95 101 107 114 125 136 144 149 151 150 146 142 142 145 149 149 150 155 161 166 170 174 178 180 185 195 203 204 200 199 204 211 217 226 234 238 228 189
202 201 206 219 233 230 219 232 255 284 298 304 316 340 360 7 14 20 24 28 30 31 38 60 68 50 28 23 31 42 49 54 60 65 69 72 74 74 77 83 88 88 87 85 82 80 81 83 85 89 94 99 105 113 119 127 136 144 150 153 153 153 155 157 158 159 162 167 173 181 187 190 193 200 207 209 205 204 203 204 205 203 200 195 186 166 150
207 206 205 214 228 229 209 207 226 253 277 303 331 358 7 8 9 11 20 33 38 37 39 48 58 55 42 30 30 40 52 59 61 62 67 72 74 72 73 77 81 83 86 89 89 89 90 91 92 93 97 102 108 113 117 121 126 131 136 140 144 148 152 156 159 163 169 175 181 188 197 208 220 227 224 205 187 174 152 139 136 131 127 124 118 113 111
210 210 206 211 225 228 212 203 223 261 285 303 306 307 332 4 9 7 20 35 38 36 40 45 49 52 52 36 24 30 49 64 68 66 65 69 72 72 71 72 74 77 83 88 90 92 93 95 96 96 96 98 104 109 113 118 124 129 132 135 136 138 141 144 151 162 174 179 182 189 200 210 209 197 178 153 134 121 117 121 121 114 104 93 82 73 70
211 211 212 216 223 225 218 211 215 240 267 277 272 265 276 346 5 15 32 37 28 22 27 34 40 48 54 49 24 21 36 56 67 69 68 69 74 76 75 71 69 70 72 75 79 85 88 90 92 92 90 91 96 102 108 114 118 120 123 126 129 131 135 140 148 161 170 169 163 156 132 113 121 127 122 116 115 114 114 114 110 100 90 80 69 61 59
217 211 216 221 223 221 217 214 214 218 231 253 258 249 255 306 334 19 49 44 22 3 8 14 23 36 45 50 50 42 38 48 61 67 68 69 72 77 79 76 71 68 66 67 70 73 73 74 76 80 82 84 88 95 106 117 124 125 125 122 119 120 124 128 134 147 156 151 129 111 102 101 103 104 99 101 106 109 108 106 103 97 92 84 74 68 65
231 219 219 224 226 220 214 216 224 221 217 228 243 240 242 281 312 343 68 57 56 283 345 356 0 10 27 42 57 60 52 52 58 62 63 63 64 69 75 78 75 72 69 67 68 70 71 71 72 74 75 77 79 82 91 105 120 131 138 141 138 133 130 128 121 112 101 96 101 106 102 90 75 73 93 104 106 105 105 106 103 98 94 89 83 77 74
238 231 227 230 234 227 217 218 228 227 217 222 239 238 234 248 275 209 185 147 143 193 243 327 343 340 354 20 45 56 54 55 61 62 61 57 53 54 59 65 68 71 73 72 69 70 71 73 73 74 74 74 76 77 79 85 97 112 125 133 134 131 132 137 139 123 98 94 101 103 95 80 66 70 90 104 106 104 107 111 108 102 100 96 89 83 80
237 239 238 240 246 241 226 221 226 228 224 226 231 227 221 215 194 194 203 203 185 200 215 224 244 282 309 344 25 47 52 60 70 73 72 68 61 55 54 55 55 59 64 67 67 67 68 69 71 74 75 74 74 73 72 75 82 92 99 100 101 104 114 129 139 125 90 89 104 113 112 105 96 91 94 100 104 110 122 124 119 113 110 103 95 89 85
238 240 243 245 250 251 239 231 231 232 232 230 224 215 214 210 196 199 221 237 221 204 215 227 234 247 273 314 11 51 57 60 69 73 73 72 68 62 61 62 59 57 57 59 60 63 64 64 65 68 71 73 72 71 69 71 75 80 82 83 86 92 101 113 118 104 89 91 105 118 127 131 132 129 126 126 133 156 167 150 133 125 121 114 106 99 92